Flag for Norway Weather past 2 weeks in Sandefjord, Norway

Now
57 °F

Passing clouds.


Feels Like: 54 °F
Forecast: 44 / 49 °F
Wind: 14 mph from Northwest

Location: Torp

Current Time: May 27, 2015 at 10:52:51 AM

Latest Report: May 27, 2015 at 9:50 AM


Visibility: N/A

Pressure: 29.86 "Hg

Humidity: 48%

Dew point: 37 °F

Location of SandefjordLocation

Historic Weather in Sandefjord — Graph

°F

Sandefjord temperature yesterday

Maximum temperature yesterday: 57 °F (at 1:20 PM)
Minimum temperature yesterday: 41 °F (at 4:50 AM)
Average temperature yesterday: 50 °F

Past Weeks' High & Low Weather Summary

 TemperatureHumidityPressure
High63 °F (May 23, 1:50 PM)100% (May 12, 9:20 PM)30.04 "Hg (May 12, 9:20 PM)
Low36 °F (May 18, 3:20 AM)29% (May 23, 5:50 PM)29.39 "Hg (May 19, 8:20 AM)
Average49 °F72%29.79 "Hg
* Reported May 12 9:20 AM — May 27 9:50 AM, Sandefjord, Weather by CustomWeather, © 2015

Note: Actual official high and low records may vary slightly from our data, if they occured in-between our weather recording intervals... More about our weather records

Advertising

Sandefjord weather history for previous 24 hours

 ConditionsComfort  
Time TempWeatherWind HumidityBarometerVisibility
9:50 AM
Wed, May 27
57 °FPassing clouds.14 mph48%29.86 "HgN/A
9:20 AM55 °FSunny.14 mph44%29.86 "Hg10 mi
8:50 AM54 °FSunny.12 mph51%29.86 "Hg10 mi
8:20 AM54 °FPassing clouds.13 mph51%29.86 "HgN/A
7:50 AM54 °FSunny.9 mph51%29.83 "Hg10 mi
7:20 AM50 °FSunny.8 mph58%29.83 "Hg10 mi
6:50 AM48 °FSunny.9 mph62%29.83 "Hg10 mi
6:20 AM46 °FSunny.9 mph62%29.83 "Hg10 mi
5:50 AM45 °FSunny.6 mph66%29.83 "Hg10 mi
5:20 AM45 °FPassing clouds.7 mph61%29.83 "HgN/A
4:50 AM45 °FQuite cool.6 mph61%29.83 "HgN/A
4:20 AM45 °FQuite cool.6 mph61%29.80 "HgN/A
3:50 AM43 °FPassing clouds.8 mph71%29.80 "HgN/A
3:20 AM45 °FQuite cool.7 mph61%29.80 "HgN/A
2:50 AM45 °FQuite cool.7 mph66%29.80 "HgN/A
2:20 AM45 °FQuite cool.5 mph66%29.80 "HgN/A
1:50 AM45 °FQuite cool.6 mph66%29.80 "HgN/A
1:20 AM45 °FQuite cool.6 mph66%29.80 "HgN/A
12:50 AM46 °FCool.6 mph62%29.80 "HgN/A
12:20 AM46 °FPassing clouds.6 mph62%29.80 "HgN/A
11:50 PM
Tue, May 26
46 °FCool.7 mph66%29.80 "HgN/A
11:20 PM48 °FCool.7 mph62%29.80 "HgN/A
10:50 PM50 °FSunny.7 mph58%29.80 "Hg10 mi
10:20 PM50 °FSunny.7 mph62%29.80 "Hg10 mi
9:50 PM52 °FSunny.6 mph72%29.80 "Hg10 mi
9:20 PM54 °FSunny.5 mph77%29.80 "Hg10 mi
8:50 PM54 °FSunny.6 mph72%29.77 "Hg10 mi
8:20 PM54 °FPassing clouds.7 mph77%29.77 "HgN/A
7:50 PM54 °FPartly sunny.7 mph72%29.77 "HgN/A
7:20 PM54 °FScattered clouds.9 mph72%29.77 "HgN/A
6:50 PM54 °FScattered clouds.9 mph72%29.77 "HgN/A
6:20 PM54 °FScattered clouds.6 mph67%29.80 "HgN/A
5:50 PM54 °FScattered showers. Partly sunny.8 mph67%29.80 "HgN/A
5:20 PM54 °FScattered showers. Partly sunny.12 mph67%29.80 "HgN/A
4:50 PM52 °FSprinkles. Partly sunny.10 mph77%29.80 "Hg6 mi
4:20 PM57 °FThundershowers. Broken clouds.14 mph63%29.77 "HgN/A
3:50 PM57 °FScattered showers. Partly sunny.13 mph63%29.77 "HgN/A
3:20 PM55 °FScattered showers. Partly sunny.14 mph63%29.77 "HgN/A
2:50 PM54 °FScattered showers. Scattered clouds.14 mph67%29.77 "HgN/A
2:20 PM55 °FScattered showers. Passing clouds.12 mph63%29.77 "HgN/A
1:50 PM57 °FScattered showers. Passing clouds.3 mph51%29.77 "HgN/A
1:20 PM57 °FScattered showers. Partly sunny.8 mph55%29.77 "HgN/A
12:50 PM55 °FScattered showers. Partly sunny.8 mph55%29.77 "HgN/A
12:20 PM55 °FScattered showers. Partly sunny.10 mph55%29.77 "HgN/A
11:50 AM54 °FScattered showers. Partly sunny.13 mph58%29.77 "HgN/A
11:20 AM54 °FScattered showers. Scattered clouds.8 mph63%29.77 "HgN/A
10:50 AM52 °FScattered showers. Scattered clouds.8 mph67%29.77 "HgN/A
10:20 AM54 °FScattered clouds.6 mph67%29.77 "HgN/A
Weather by CustomWeather, © 2015

See weather overviewHow to use our weather pages